FALCON 9 DEB (48837 NORAD) Tracking and Keplerian Element Data

This shows tracking and keplerian element data for the satellite.

Feedback or suggestion? Click here.




ElementValue
Catalog48837
NameFALCON 9 DEB
Epoch Orbit182
Epoch Day164.86448836
Epoch Year2021
RAAN347.0961
Inclination53.0358
Eccentricity0.0016717
Argument of Perigee43.7499
Mean Anonmoly316.4807
Mean Motion14.96753239
Decay Rate7E-08
L11 48837U 21041BL 21164.86448836 .00000007 00000-0 23296-4 0 9992
L22 48837 53.0358 347.0961 0016717 43.7499 316.4807 14.96753239 1823



Live tracking and technical data element details for FALCON 9 DEB (NORAD 48837). FALCON 9 DEB can be tracked NOW for your location showing map with azimuth and elevation plus other details from your city location.







IsCatalogInMostPopularTable: catalog: 48837, numindb: 71
Update: records affected: 1



GetName: 48837 FALCON 9 DEB

Hit Count: updated at: Mon, 05 Jun 2023 01:01:59 GMT